440  
ASUS43 KEAX 180315  
RWREAX  
 
WEATHER ROUNDUP FOR EASTERN KANSAS AND NORTHWEST MISSOURI  
NATIONAL WEATHER SERVICE KANSAS CITY/PLEASANT HILL MO  
1000 PM CDT SAT APR 17 2021  
 
KSZ040-057-103>105-MOZ028-029-037-043-180400-   
..KANSAS CITY METROPOLITAN AREA
 
 
 
CITY SKY/WX TMP DP RH WIND PRES REMARKS
 
K.C. INTL CLOUDY 50 43 77 W3 30.06R  
K.C. DOWNTOWN CLOUDY 50 43 77 W5 30.06R  
LEES SUMMIT CLOUDY 49 45 86 W5 30.07R  
OLATHE - IXD LGT RAIN 49 41 74 NW5 30.08R  
OLATHE - OJC CLOUDY 50 41 71 NW6 30.07R  
LAWRENCE CLOUDY 49 44 83 W3 30.09R  
 

 
 
MOZ001>008-011>017-020>025-030>033-038>040-044>046-053-054-180400-   
..NORTHERN AND CENTRAL MISSOURI
 
 
 
CITY SKY/WX TMP DP RH WIND PRES REMARKS
 
ST. JOSEPH MOCLDY 47 39 74 NW9 30.07R  
MOSBY PTCLDY 48 41 76 NW3 30.06R  
HARRISONVILLE CLOUDY 50 43 76 CALM 30.09R  
WHITEMAN AFB MOCLDY 45 41 86 SW5 30.01R  
CLINTON CLOUDY 45 43 93 SW3 30.06R  
SEDALIA PTCLDY 48 43 82 SW8 30.06R  
MARSHALL PTCLDY N/A N/A N/A SW5 30.04S  
CHILLICOTHE N/A 53 38 56 NW6 30.03R  
MOBERLY PTCLDY 48 39 71 S5 30.02R  
KIRKSVILLE PTCLDY 50 41 71 SW5 29.99S  
 

 
 
MOZ041-047>049-056>058-063>065-088>090-097-180400-   
..EASTERN AND SOUTHERN MISSOURI
 
 
 
CITY SKY/WX TMP DP RH WIND PRES REMARKS
 
ST. LOUIS INTL LGT RAIN 52 47 83 SW5 30.01S  
SPIRIT OF STL CLOUDY 48 43 82 SW3 30.01R  
COLUMBIA PTCLDY 50 44 80 CALM 30.02S  
JEFFERSON CITY CLOUDY 53 43 68 CALM 30.03S  
MEXICO PTCLDY 45 43 93 SW5 30.01S  
HANNIBAL PTCLDY 45 43 93 S6 30.00S  
ROLLA CLOUDY 47 42 83 SW8 30.04R  
LEBANON PTCLDY 45 39 81 CALM 30.07R  
OSAGE BEACH CLOUDY 48 43 82 W3 30.06R  
SPRINGFIELD CLOUDY 47 40 76 W7 30.07R  
BRANSON CLOUDY 45 41 87 CALM 30.09R  
JOPLIN MOCLDY 44 40 85 W3 30.11R  
WEST PLAINS CLOUDY 48 42 80 W6 30.06R  
SIKESTON CLEAR 52 45 76 CALM 30.01S  
 

 
 
IAZ060-094-KSZ022-034>040-054-083-096-NEZ052-066-093-180400-    
..KANSAS...SOUTHEAST NEBRASKA AND IOWA
 
 
 
CITY SKY/WX TMP DP RH WIND PRES REMARKS
 
TOPEKA CLEAR 48 38 68 NW9 30.10R  
MANHATTAN MOCLDY 43 38 82 W3 30.12R  
EMPORIA CLOUDY 48 42 80 NW6 30.11R  
OTTAWA CLOUDY 48 46 93 W6 30.08R  
CHANUTE CLOUDY 50 43 77 CALM 30.11R  
SALINA CLEAR 43 39 86 NW6 30.15R  
WICHITA MOCLDY 45 39 79 W5 30.14R  
OMAHA MOCLDY 49 37 63 NW8 30.08R  
LINCOLN CLOUDY 46 35 65 NW6 30.12R  
FALLS CITY CLOUDY 49 39 68 NW9 30.08R  
DES MOINES MOCLDY 53 32 44 NW13 30.02R  
 

 
 
 
 
CLICK HERE TO GO TO PREVIOUS BULLETINS.

The Nexlab MO Page
The Nexlab KS Page Main Text Page